Flag for Bermuda Weather past 2 weeks in Hamilton, Bermuda

Now
82 °F

Broken clouds.


Feels Like: 87 °F
Forecast: N/A
Wind: 7 mph from Southeast

Location: Bermuda

Current Time: Jul 11, 2014 at 6:42:10 PM

Latest Report: Jul 11, 2014 at 5:55 PM


Visibility: N/A

Pressure: 30.27 "Hg

Humidity: 70%

Dew point: 72 °F

Location of HamiltonLocation

Historic Weather in Hamilton — Graph

°F

Hamilton temperature yesterday

Maximum temperature yesterday: 84 °F (at 11:55 AM)
Minimum temperature yesterday: 79 °F (at 3:55 AM)
Average temperature yesterday: 82 °F

Past Weeks' High & Low Weather Summary

 TemperatureHumidityPressure
High84 °F (Jun 27, 2:55 PM)94% (Jun 29, 3:55 AM)30.33 "Hg (Jun 29, 3:55 AM)
Low72 °F (Jun 29, 4:55 AM)57% (Jul 1, 9:55 AM)30.07 "Hg (Jun 29, 5:55 PM)
Average79 °F77%30.19 "Hg
* Reported Jun 26 4:55 PM — Jul 11 4:55 PM, Hamilton, Weather by CustomWeather, © 2014

Note: Actual official high and low records may vary slightly from our data, if they occured in-between our weather recording intervals... More about our weather records

Advertising

Hamilton weather history for previous 24 hours

 ConditionsComfort  
Time TempWeatherWind HumidityBarometerVisibility
4:55 PM
Jul 11
82 °FBroken clouds.8 mph70%30.27 "HgN/A
3:55 PM82 °FBroken clouds.9 mph70%30.27 "HgN/A
2:55 PM82 °FBroken clouds.9 mph70%30.27 "HgN/A
1:55 PM84 °FBroken clouds.9 mph66%30.30 "HgN/A
12:55 PM82 °FBroken clouds.8 mph70%30.30 "HgN/A
11:55 AM82 °FBroken clouds.9 mph70%30.30 "HgN/A
10:55 AM82 °FBroken clouds.7 mph70%30.33 "HgN/A
9:55 AM82 °FScattered clouds.7 mph74%30.30 "HgN/A
8:55 AM82 °FScattered clouds.6 mph70%30.30 "HgN/A
7:55 AM81 °FScattered clouds.9 mph79%30.30 "HgN/A
6:55 AM79 °FPassing clouds.7 mph79%30.27 "HgN/A
5:55 AM79 °FPartly cloudy.9 mph79%30.30 "HgN/A
4:55 AM79 °FPartly cloudy.8 mph79%30.27 "HgN/A
3:55 AM79 °FPartly cloudy.7 mph79%30.27 "HgN/A
2:55 AM79 °FPartly cloudy.9 mph79%30.30 "HgN/A
1:55 AM81 °FPartly cloudy.8 mph74%30.30 "HgN/A
12:55 AM81 °FPartly cloudy.8 mph74%30.30 "HgN/A
11:55 PM
Jul 10
81 °FPartly cloudy.9 mph74%30.33 "HgN/A
10:55 PM81 °FPartly cloudy.8 mph74%30.33 "HgN/A
9:55 PM81 °FPartly cloudy.9 mph74%30.30 "HgN/A
8:55 PM81 °FBroken clouds.9 mph74%30.30 "HgN/A
7:55 PM81 °FBroken clouds.10 mph74%30.30 "HgN/A
6:55 PM82 °FBroken clouds.10 mph74%30.30 "HgN/A
Weather by CustomWeather, © 2014

See weather overviewHow to use our weather pages